Flag for U.S.A. Weather past 2 weeks in Colorado Springs, Colorado, U.S.A.

Now
23 °F

Passing clouds.


Feels Like: 14 °F
Forecast: 20 / 44 °F
Wind: 8 mph from Northeast

Location: City Of Colorado Springs Municipal Airport

Current Time: Mar 6, 2015 at 6:25:33 AM

Latest Report: Mar 6, 2015 at 5:54 AM


Visibility: 10 mi

Pressure: 30.40 "Hg

Humidity: 57%

Dew point: 10 °F

Location of Colorado SpringsLocation

Historic Weather in Colorado Springs — Graph

°F

Colorado Springs temperature yesterday

Maximum temperature yesterday: 34 °F (at 1:54 PM)
Minimum temperature yesterday: 0 °F (at 1:54 AM)
Average temperature yesterday: 20 °F

Past Weeks' High & Low Weather Summary

 TemperatureHumidityPressure
High65 °F (Feb 19, 2:54 PM)96% (Feb 21, 7:54 AM)30.66 "Hg (Feb 21, 7:54 AM)
Low-1 °F (Feb 28, 5:54 AM)13% (Feb 19, 9:54 AM)29.56 "Hg (Feb 20, 12:54 PM)
Average22 °F72%30.18 "Hg
* Reported Feb 19 4:54 AM — Mar 6 4:54 AM, Colorado Springs, Weather by CustomWeather, © 2015

Note: Actual official high and low records may vary slightly from our data, if they occured in-between our weather recording intervals... More about our weather records

Advertising

Colorado Springs weather history for previous 24 hours

 ConditionsComfort  
Time TempWeatherWind HumidityBarometerVisibility
4:54 AM
Fri, Mar 6
21 °FPassing clouds.10 mph62%30.40 "Hg10 mi
3:54 AM24 °FPassing clouds.8 mph55%30.37 "Hg10 mi
2:54 AM23 °FClear.9 mph57%30.38 "Hg10 mi
1:54 AM21 °FPassing clouds.7 mph68%30.40 "Hg10 mi
12:54 AM20 °FPassing clouds.8 mph71%30.41 "Hg10 mi
11:54 PM
Thu, Mar 5
21 °FClear.7 mph71%30.41 "Hg10 mi
10:54 PM23 °FClear.9 mph68%30.42 "Hg10 mi
9:54 PM25 °FPassing clouds.7 mph66%30.43 "Hg10 mi
8:54 PM24 °FPassing clouds.6 mph65%30.45 "Hg10 mi
7:54 PM25 °FPassing clouds.5 mph66%30.47 "Hg10 mi
6:54 PM28 °FPassing clouds.7 mph61%30.50 "Hg10 mi
5:54 PM32 °FPartly sunny.No wind52%30.47 "Hg10 mi
4:54 PM33 °FScattered clouds.5 mph48%30.45 "Hg10 mi
3:54 PM34 °FPartly sunny.6 mph42%30.42 "Hg10 mi
2:54 PM32 °FPartly sunny.6 mph66%30.42 "Hg10 mi
1:54 PM34 °FPartly sunny.8 mph64%30.43 "Hg10 mi
12:54 PM33 °FPartly sunny.3 mph56%30.41 "Hg10 mi
11:54 AM33 °FPartly sunny.5 mph30%30.41 "Hg10 mi
10:54 AM32 °FPartly sunny.6 mph32%30.41 "Hg10 mi
9:54 AM29 °FPartly sunny.5 mph34%30.42 "Hg10 mi
8:54 AM24 °FScattered clouds.6 mph44%30.44 "Hg10 mi
7:54 AM14 °FPassing clouds.7 mph51%30.47 "Hg10 mi
6:54 AM3 °FPassing clouds.10 mph69%30.51 "Hg10 mi
Weather by CustomWeather, © 2015

See weather overviewHow to use our weather pages